Location: Aldenham
(51.6667°N, 0.3500°W)
Time: 16:25:43
(UTC+00:00)

IGS 5A - Pass Details

Date: 18 November 2025
Orbit: 548 x 559 km, 97.4° (Epoch: 12 December)

Event Time Altitude Azimuth Distance (km) Brightness Sun altitude
Rises 16:44:17 0° 159° (SSE) 2,713 6.9 -5.9°
Reaches altitude 10° 16:46:24 10° 157° (SSE) 1,823 6.0 -6.2°
Maximum altitude 16:50:19 70° 74° (ENE) 590 3.3 -6.8°
Drops below altitude 10° 16:54:16 10° 351° (N) 1,836 5.9 -7.3°
Sets 16:56:25 0° 349° (N) 2,735 6.8 -7.7°
